Notices

What's New in latest Release from April 7th, 2021:

- Updated Glossary, including Speed of Maximum Gust, and Total Hourly Precipitation

- Updated national and regional climate services offices contacts and prices information

- Addition of station inventory lists for 1981-2010, 1971-2000, and 1961-1990 Normals.

If you haven't already, please take our survey and provide feedback about our website: https://eccc.sondage-survey.ca/f/LanguageSelection.aspx?s=442ca660-fcf1-47c0-95a9-59707d6fd709

Hourly Data Report for November 06, 2017

CARBERRY CS
MANITOBA

49°54'20.900" N
99°21'26.800" W
383.50 m
5010547
71170
WZE

Download Data

Hourly Data (November 2017)
Hourly Data Report for November 6, 2017
TIME
LST
Temp Definition
°C
Dew Point Definition
°C
Rel Hum Definition
%
Precip. Amount Definition
mm

Wind Dir Definition
10's deg

Wind Spd Definition
km/h
Visibility Definition
km
Stn Press Definition
kPa
Hmdx Definition


Wind Chill Definition


Weather Definition


00:00 -12.7 -15.8 77 0.0 24 16   97.25   -20 LegendNANA
01:00 -12.7 -15.8 77 0.0 25 19   97.27   -21 LegendNANA
02:00 -13.3 -16.3 78 0.0 25 24   97.27   -23 LegendNANA
03:00 -14.1 -16.8 80 0.0 25 16   97.33   -22 LegendNANA
04:00 -14.4 -17.1 80 0.0 25 21   97.30   -24 LegendNANA
05:00 -14.9 -17.5 81 0.0 26 23   97.33   -25 LegendNANA
06:00 -15.0 -17.6 81 0.0 25 20   97.38   -24 LegendNANA
07:00 -15.3 -17.3 84 0.0 25 16   97.41   -24 LegendNANA
08:00 -14.1 -16.6 82 0.0 24 14   97.44   -22 LegendNANA
09:00 -13.2 -16.2 78 0.0 24 14   97.54   -20 LegendNANA
10:00 -11.8 -14.9 78 0.0 25 20   97.61   -20 LegendNANA
11:00 -10.1 -13.6 75 0.0 26 21   97.71   -18 LegendNANA
12:00 -8.9 -13.2 71 0.0 26 27   97.70   -18 LegendNANA
13:00 -7.9 -12.4 70 0.0 27 25   97.72   -16 LegendNANA
14:00 -7.3 -12.4 67 0.0 26 22   97.75   -15 LegendNANA
15:00 -7.3 -12.2 68 0.0 27 22   97.81   -15 LegendNANA
16:00 -7.4 -12.6 66 0.0 27 23   97.89   -15 LegendNANA
17:00 -9.1 -14.4 65 0.0 29 21   97.96   -17 LegendNANA
18:00 -11.2 -15.7 69 0.0 29 16   98.01   -18 LegendNANA
19:00 -12.3 -15.4 78 0.0 26 12   98.11   -19 LegendNANA
20:00 -13.6 -17.3 74 0.0 27 18   98.15   -22 LegendNANA
21:00 -15.7 -18.8 77 0.0 27 13   98.23   -23 LegendNANA
22:00 -15.7 -18.9 76 0.0 24 9   98.25   -22 LegendNANA
23:00 -16.0 -18.6 81 0.0 25 7   98.27   -21 LegendNANA

Notes on Data Quality.

Legend

  • E = Estimated
  • M = Missing
  • NA = Not Available*
  • [empty] = Indicates an unobserved value
Date modified: